Terminal Aerodrome Forecast
Issued by NWS

Home | Current Version | Previous Version | Graphics & Text | Print | Product List | Glossary On
Versions: 1 2 3 4 5 6 7 8 9 10 11 12 13 14 15 16 17
000
FTUS42 KMHX 191700 RRA
TAFOAJ
TAF
KOAJ 191746Z 1918/2018 08012G18KT P6SM SCT200
     FM200000 04005KT P6SM BKN250
     FM200900 00000KT 4SM BR SCT200
     FM201300 04008KT P6SM BKN200
      AMD LTD TO CLD VIS AND WIND=

USA.gov is the U.S. government's official web portal to all federal, state and local government web resources and services.